Location: Newark
(40.3500°N, 15.2333°E)
Time: 21:37:23
(UTC+00:00)

Altair - Pass Details

Date: 27 January 2020
Orbit: 1502 x 1682 km, 47.2° (Epoch: 19 February)

Event Time Altitude Azimuth Distance (km) Brightness Sun altitude
Rises 06:56:09 0° 233° (SW) 4,843 9.9 6.4°
Reaches altitude 10° 06:59:14 10° 232° (SW) 3,878 9.4 6.9°
Maximum altitude 07:09:13 81° 148° (SSE) 1,696 8.1 8.5°
Drops below altitude 10° 07:19:25 10° 63° (ENE) 3,948 10.1 10.1°
Sets 07:22:35 0° 62° (ENE) 4,933 10.5 10.6°
